Location: Hermaringen
(48.5952°N, 10.2585°E)
Time: 02:43:01
(UTC+00:00)

Cosmos 1954 Rocket - Pass Details

Date: 18 November 2025
Orbit: 748 x 776 km, 74.0° (Epoch: 04 December)

Event Time Altitude Azimuth Distance (km) Brightness Sun altitude
Rises 18:06:49 0° 213° (SSW) 3,238 7.7 -24.7°
Reaches altitude 10° 18:09:13 10° 217° (SW) 2,312 6.9 -25.1°
Maximum altitude 18:14:24 59° 297° (WNW) 888 4.5 -25.9°
Enters shadow 18:16:52 30° 4° (N) 1,347 5.2 -26.3°
